Dewpoint
40 40 40 41 40 40 40 40 40 40 40 39 39 39 39 39 39 39 39 39 38 38 38 38 38 38 38 38 37 37 36 35 35 35 34 34 34 34 34 34 34 34 34 33 33 33 32 32 32 32 32 32 33 34 34 34 34 34 34 34 34 34 34 34 34 34 34 34 34
39 39 40 41 41 40 40 40 40 39 39 39 39 38 38 39 39 39 39 39 38 38 38 37 38 38 37 37 37 36 35 35 34 34 34 34 34 34 34 34 34 34 34 34 33 32 32 32 32 31 31 31 32 33 33 34 35 34 34 34 34 34 34 34 34 34 34 34 34
38 39 40 40 40 40 39 39 39 39 39 39 39 38 38 38 38 38 38 38 38 38 38 37 38 38 37 37 36 36 35 34 34 34 34 34 34 34 34 34 34 34 35 34 34 33 32 32 31 31 31 31 31 31 32 33 34 34 34 33 33 33 33 33 34 34 34 34 34
38 38 39 39 39 39 39 39 39 39 39 38 39 39 38 38 38 38 38 38 38 38 38 38 39 39 38 37 36 35 35 34 34 34 34 34 33 33 33 33 33 33 34 34 34 34 33 32 31 31 31 31 31 31 31 31 32 33 33 33 33 33 33 33 33 33 33 33 34
38 38 38 38 39 39 39 39 38 38 38 39 38 38 38 38 38 38 38 38 38 38 38 38 39 39 38 37 36 35 34 34 34 34 34 33 33 33 33 33 32 32 33 34 34 34 33 32 31 30 30 30 30 30 30 31 32 32 32 32 32 33 33 33 33 33 33 33 33
37 37 38 38 38 39 39 39 39 38 38 39 38 38 38 37 37 37 37 37 37 37 38 39 39 39 38 36 35 34 34 34 34 34 34 34 34 33 32 32 33 33 33 33 34 34 33 33 31 30 30 30 30 30 31 31 31 32 32 32 32 32 33 33 33 33 33 33 33
38 38 38 38 39 38 38 38 39 39 38 38 38 38 38 37 37 37 37 37 37 37 37 38 38 37 37 36 35 34 34 34 34 34 35 35 34 34 34 33 34 34 33 33 33 33 33 33 31 30 30 31 30 31 31 31 31 32 32 32 31 32 32 33 33 33 33 34 34
39 38 38 39 39 39 38 38 38 38 37 36 37 37 37 38 37 37 36 36 36 36 37 37 37 37 37 36 36 36 35 35 35 34 34 34 34 34 34 34 34 34 34 34 33 32 32 32 30 30 30 31 30 30 31 32 32 32 32 32 31 32 33 34 34 34 33 34 34
39 39 39 39 38 38 38 38 37 36 35 35 37 37 36 36 37 36 35 34 35 36 37 37 37 37 37 37 37 37 37 37 36 35 35 35 35 35 35 35 35 35 34 34 33 33 32 31 30 30 30 30 30 31 32 33 33 33 32 32 32 31 32 32 33 33 33 34 35
38 39 38 38 37 37 38 37 37 36 35 35 35 35 35 36 36 35 34 34 35 36 36 36 37 37 37 37 37 37 37 37 37 37 37 36 36 36 36 35 35 35 34 34 33 33 32 31 31 31 31 31 32 33 34 34 34 34 33 31 31 32 32 32 32 33 33 34 35
38 38 38 38 37 37 37 36 36 35 35 34 35 35 35 35 35 34 34 35 35 35 35 36 36 37 36 36 36 36 36 36 37 37 37 37 37 36 36 36 36 36 35 35 34 33 33 32 32 32 33 31 32 34 34 34 34 33 33 31 32 33 33 33 33 33 33 34 34
38 38 38 38 38 37 37 35 35 35 35 35 36 36 35 34 35 35 36 35 34 34 35 36 36 36 36 35 35 36 36 36 36 36 36 36 36 36 36 36 36 36 36 36 34 34 34 34 34 34 33 33 33 34 34 34 34 33 33 33 33 33 33 34 34 33 33 34 34
39 38 38 38 38 37 36 36 36 36 36 35 37 37 36 35 35 36 36 35 34 34 35 35 35 35 35 35 35 35 35 35 36 36 36 36 36 36 36 36 36 36 36 35 35 34 34 34 34 34 34 34 33 33 33 33 33 33 33 32 32 33 33 34 34 34 33 33 34
39 39 38 38 38 38 37 36 36 36 36 36 37 37 37 36 36 36 36 35 35 35 36 35 35 35 35 35 35 35 35 34 35 35 35 35 35 35 36 36 36 36 35 35 34 34 34 34 34 34 34 34 34 33 33 33 33 33 32 32 32 32 33 33 34 34 34 34 33
39 39 38 38 38 38 37 37 37 36 36 36 37 37 37 37 37 37 36 35 36 36 36 35 35 34 34 34 34 35 34 34 34 34 34 34 34 35 35 35 35 35 35 34 34 34 34 34 34 34 34 34 34 34 33 33 32 32 32 32 32 32 32 32 33 33 33 33 33
39 38 38 38 38 38 37 37 37 36 36 36 37 38 38 38 37 37 37 36 36 36 36 35 35 34 34 34 34 34 34 34 34 34 34 34 34 34 34 35 35 35 35 35 34 34 34 34 33 33 33 33 33 33 33 33 33 32 32 32 32 32 32 32 32 32 32 32 32
38 38 38 38 38 38 38 37 37 37 36 37 38 38 38 37 37 37 37 37 37 36 36 35 35 34 34 34 34 33 33 33 33 33 33 33 34 34 34 34 35 35 35 35 34 34 34 33 33 33 33 32 32 32 33 33 33 32 32 32 32 32 32 32 32 32 31 31 31
38 38 38 38 38 38 38 38 38 38 37 38 38 38 37 37 37 37 37 37 37 37 36 35 35 34 34 34 33 33 33 33 33 33 33 33 34 34 34 34 35 35 35 35 35 34 34 34 33 33 32 32 32 32 32 32 32 33 33 32 32 32 32 32 32 31 31 30 31
38 38 38 38 38 38 38 38 38 38 38 38 38 38 38 38 37 37 37 37 37 37 36 36 35 34 34 34 33 33 33 33 33 33 33 34 34 34 34 34 35 35 35 35 35 35 34 34 34 33 33 32 32 32 32 32 32 32 33 33 32 32 32 32 32 31 31 30 31
38 38 38 38 38 38 38 38 38 38 39 39 38 38 38 38 37 37 37 37 37 36 36 36 35 34 34 33 33 33 33 34 34 34 34 34 34 34 34 35 35 35 35 35 34 34 34 34 34 33 33 32 32 31 31 31 32 32 32 32 32 32 32 32 31 31 31 31 31
38 38 38 38 38 38 38 38 38 38 38 39 38 38 38 38 37 37 37 37 36 36 36 35 35 34 34 33 33 33 33 34 34 34 34 34 34 34 35 35 34 34 34 34 34 34 34 34 33 33 32 32 31 31 31 31 31 31 31 32 32 32 32 31 31 31 31 31 31
38 38 38 38 38 38 38 38 38 38 38 38 38 38 38 38 37 37 37 37 36 35 35 34 34 34 34 34 33 33 33 33 34 34 35 35 35 35 35 34 34 34 34 34 34 34 33 33 32 32 32 31 31 31 31 31 31 31 31 31 31 31 31 31 30 30 31 31 31
39 39 39 38 38 38 38 38 38 38 38 38 38 38 38 38 37 37 36 36 36 35 34 34 34 34 35 34 34 34 34 34 34 34 34 35 35 35 35 34 34 34 33 33 33 33 33 32 32 32 31 31 31 31 31 31 31 31 30 30 31 31 31 31 31 30 30 30 30
39 39 39 39 38 38 38 38 38 38 38 38 38 38 38 37 37 37 36 36 36 35 35 34 34 34 34 35 35 34 34 34 34 34 34 34 35 34 34 34 34 33 33 33 33 32 32 31 31 31 31 31 31 31 31 31 30 30 30 30 30 30 31 31 31 31 30 30 29
39 39 39 39 38 38 38 38 38 38 38 38 38 38 37 37 37 37 36 36 36 35 35 34 34 34 34 34 34 34 34 33 34 34 34 34 34 34 34 33 33 32 32 31 32 32 32 32 31 30 30 30 30 30 30 30 30 30 30 30 30 30 30 30 30 31 30 30 30
39 39 38 38 38 38 38 38 38 38 38 38 37 37 37 37 37 37 36 36 36 35 35 35 34 34 34 34 34 33 33 33 33 33 34 34 34 34 33 33 33 32 31 31 32 33 33 33 32 31 31 30 30 29 29 29 30 30 30 30 29 29 29 29 29 30 30 31 31
39 39 39 38 38 38 38 38 38 37 37 37 37 37 37 37 37 37 36 36 35 35 35 34 34 34 34 33 33 33 32 32 33 33 34 34 34 34 33 32 32 32 32 32 32 33 33 34 33 33 32 31 30 30 29 29 30 30 30 30 30 29 29 29 29 29 29 30 30
39 39 39 38 38 38 38 38 38 38 37 37 37 37 37 37 36 36 36 35 35 35 34 34 34 33 32 32 32 33 32 32 32 32 33 34 33 33 32 31 32 32 32 32 32 33 33 34 34 34 33 33 32 31 31 30 30 30 29 29 29 29 29 29 28 28 28 29 30
39 39 39 38 38 38 38 38 38 38 38 38 37 37 37 36 36 36 35 35 35 34 33 32 32 32 31 31 32 32 32 32 32 32 32 33 33 32 31 31 31 31 32 33 33 33 34 34 34 34 34 34 33 32 32 31 31 30 29 29 29 28 28 28 28 28 28 28 29
39 39 39 38 38 38 38 38 38 38 38 37 37 37 37 36 36 35 35 35 34 34 33 32 32 31 31 31 32 32 32 31 32 32 32 33 32 32 31 30 31 31 32 33 33 34 34 34 34 34 34 34 34 34 34 33 31 30 29 29 29 28 28 28 28 28 28 27 27
39 39 39 38 38 38 38 38 38 38 37 37 37 36 36 36 35 35 35 34 34 33 33 32 32 32 32 31 31 31 31 31 31 32 32 32 32 32 31 30 31 31 32 33 33 34 34 34 34 34 34 34 34 34 34 34 33 32 30 29 29 29 28 28 28 28 28 27 27
39 38 38 38 38 38 38 38 38 38 37 37 36 36 35 35 35 34 34 34 34 33 32 32 32 32 31 31 31 31 31 31 31 32 32 32 32 31 31 31 31 31 32 32 33 33 34 34 34 34 34 34 34 34 34 34 34 33 32 31 31 30 30 30 29 28 28 27 27
38 38 38 38 38 38 38 38 38 37 37 37 36 36 35 35 34 34 34 34 33 33 32 31 32 32 31 31 31 31 31 32 32 32 32 31 31 30 30 30 30 31 31 32 33 33 34 34 34 34 34 34 34 34 34 34 34 34 33 32 32 32 31 31 30 29 29 29 28
38 38 38 38 38 38 38 37 37 37 36 36 36 36 35 35 35 35 34 34 33 32 32 32 32 32 31 31 31 31 32 33 32 32 31 31 30 30 30 30 31 32 32 32 33 33 33 34 34 34 34 34 34 34 33 33 34 33 33 33 32 32 33 33 32 31 31 31 30
37 37 37 38 38 37 37 37 36 36 35 35 35 35 35 35 35 34 34 33 32 32 32 32 32 32 32 32 32 32 32 33 33 33 32 31 30 30 30 30 30 31 32 32 33 33 33 34 34 34 34 34 34 34 33 32 32 32 32 32 32 33 34 34 34 33 33 32 31
36 37 37 37 37 37 37 36 36 35 35 34 34 34 34 34 34 34 34 33 32 32 31 31 31 31 31 31 32 32 32 33 33 33 33 32 31 30 29 29 29 30 31 32 33 33 33 34 34 34 34 34 34 33 33 32 32 32 31 31 31 31 32 34 34 34 34 33 33
34 34 35 35 36 36 36 35 35 34 34 34 34 34 34 34 34 34 33 33 32 32 31 31 31 31 31 31 31 32 32 32 32 33 33 33 32 31 30 29 29 30 31 32 32 33 33 34 34 34 34 33 33 33 32 32 32 31 31 30 30 31 31 33 33 33 34 34 34
32 32 33 33 33 34 34 34 34 33 34 34 34 34 34 34 34 33 33 32 32 32 31 31 30 30 31 31 31 31 32 32 32 32 33 33 32 32 30 29 30 30 31 32 32 33 33 33 34 34 33 33 32 32 32 31 31 31 30 30 30 30 30 31 31 32 33 34 34
31 31 31 31 31 32 32 32 31 32 33 33 34 34 34 34 33 33 32 32 32 32 31 31 30 31 31 31 31 31 32 32 32 32 33 33 33 32 31 30 30 30 31 31 32 32 33 33 34 34 34 33 32 32 31 31 31 30 30 30 29 29 30 30 30 30 31 33 33
31 31 31 31 31 31 31 30 31 31 32 32 33 33 33 33 33 32 31 32 32 31 31 31 31 31 31 31 31 31 31 31 31 32 32 33 33 32 32 31 31 30 31 31 32 32 33 33 33 34 34 33 32 32 31 30 30 30 29 29 29 29 29 29 29 30 30 31 31
31 31 31 31 31 31 31 30 31 31 31 32 32 32 32 32 32 31 31 31 31 31 30 30 30 30 30 31 30 30 31 31 31 31 32 32 32 32 32 32 31 31 31 31 32 32 33 33 34 34 34 33 32 32 31 30 29 29 29 29 29 29 29 29 29 29 29 29 30